User: anonymous   Login
Location: Goheenville
(40.9070°N, 79.3720°W)
Time: 09:15:25
(UTC-05:00)
Language:

Cosmos 1727 Rocket - Orbit

View from above orbital plane
View from above orbital plane
View from above satellite
View from above satellite

Ground track
Ground track

The orbit data is extracted from the following two-line orbital elements,

1 16511U 86008B   15024.87814987  .00000030  00000-0  15731-4 0  6609
2 16511 082.9470 148.2920 0024284 201.9440 305.7949 13.75777657456054
Epoch (UTC): 24 January 2015 21:04:32
Eccentricity: 0.0024284
inclination: 82.9470°
perigee height: 961 km
apogee height: 997 km
right ascension of ascending node: 148.2920°
argument of perigee: 201.9440°
revolutions per day: 13.75777657
mean anomaly at epoch: 305.7949°
orbit number at epoch: 45605

The dashed part of the orbit path shows where the satellite is in the earth's shadow,  

DLR